Flag for U.S.A. Weather past 2 weeks in Rockford, Illinois, U.S.A.

Now
59 °F

Passing clouds.


Feels Like: 59 °F
Forecast: 57 / 78 °F
Wind: No wind

Location: Greater Rockford Airport

Current Time: Jul 29, 2014 at 4:56:13 AM

Latest Report: Jul 29, 2014 at 3:54 AM


Visibility: 10 mi

Pressure: 30.07 "Hg

Humidity: 75%

Dew point: 51 °F

Location of RockfordLocation

Historic Weather in Rockford — Graph

°F

Rockford temperature yesterday

Maximum temperature yesterday: 73 °F (at 4:54 PM)
Minimum temperature yesterday: 57 °F (at 5:54 AM)
Average temperature yesterday: 65 °F

Past Weeks' High & Low Weather Summary

 TemperatureHumidityPressure
High86 °F (Jul 22, 6:54 PM)93% (Jul 26, 11:54 PM)30.20 "Hg (Jul 26, 11:54 PM)
Low52 °F (Jul 16, 5:54 AM)35% (Jul 14, 12:54 PM)29.75 "Hg (Jul 27, 11:54 AM)
Average69 °F68%30.02 "Hg
* Reported Jul 14 3:54 AM — Jul 29 3:54 AM, Rockford, Weather by CustomWeather, © 2014

Note: Actual official high and low records may vary slightly from our data, if they occured in-between our weather recording intervals... More about our weather records

Advertising

Rockford weather history for previous 24 hours

 ConditionsComfort  
Time TempWeatherWind HumidityBarometerVisibility
3:54 AM
Jul 29
59 °FPassing clouds.No wind75%30.07 "Hg10 mi
2:54 AM60 °FPassing clouds.5 mph72%30.08 "Hg10 mi
1:54 AM61 °FPassing clouds.7 mph70%30.09 "Hg10 mi
12:54 AM62 °FPassing clouds.9 mph67%30.09 "Hg10 mi
11:54 PM
Jul 28
63 °FPassing clouds.8 mph68%30.09 "Hg10 mi
10:54 PM61 °FPassing clouds.7 mph75%30.09 "Hg10 mi
9:54 PM62 °FPassing clouds.5 mph73%30.11 "Hg10 mi
8:54 PM63 °FPassing clouds.5 mph70%30.09 "Hg10 mi
7:54 PM68 °FPassing clouds.6 mph59%30.09 "Hg10 mi
6:54 PM71 °FScattered clouds.9 mph47%30.09 "Hg10 mi
5:54 PM73 °FScattered clouds.8 mph43%30.10 "Hg10 mi
4:54 PM73 °FPartly sunny.9 mph41%30.12 "Hg10 mi
3:54 PM72 °FPartly sunny.12 mph43%30.11 "Hg10 mi
2:54 PM72 °FPartly sunny.17 mph41%30.13 "Hg10 mi
1:54 PM71 °FPartly sunny.15 mph41%30.12 "Hg10 mi
12:54 PM72 °FScattered clouds.21 mph41%30.12 "Hg10 mi
11:54 AM70 °FPassing clouds.15 mph44%30.12 "Hg10 mi
10:54 AM68 °FPassing clouds.21 mph45%30.12 "Hg10 mi
9:54 AM65 °FPassing clouds.17 mph52%30.11 "Hg10 mi
8:54 AM62 °FPassing clouds.21 mph60%30.12 "Hg10 mi
7:54 AM60 °FSunny.17 mph67%30.10 "Hg10 mi
6:54 AM57 °FPassing clouds.10 mph78%30.08 "Hg10 mi
5:54 AM57 °FPassing clouds.9 mph81%30.06 "Hg10 mi
4:54 AM58 °FClear.7 mph78%30.04 "Hg10 mi
Weather by CustomWeather, © 2014

See weather overviewHow to use our weather pages